Home   Weather   Paramus   Past weeks

Flag for USA Past Weather in Paramus, New Jersey, USA — Yesterday and Last 2 Weeks

48 °F


Feels Like: 41 °F
Forecast: 43 / 50 °F
Wind: 22 mph from Northwest

Location: Teterboro Airport

Current Time: Oct 28, 2016 at 1:58:59 PM

Latest Report: Oct 28, 2016 at 12:51 PM

Visibility: 10 mi

Pressure: 30.11 "Hg

Humidity: 50%

Dew Point: 30 °F

Location of ParamusLocation

Past Weather in Paramus — Graph


Paramus Temperature Yesterday

Maximum temperature yesterday: 53 °F (at 8:51 PM)
Minimum temperature yesterday: 39 °F (at 10:51 AM)
Average temperature yesterday: 45 °F

High & Low Weather Summary for the Past Weeks

High85 °F (Oct 18, 4:51 PM)93% (Oct 27, 9:51 PM)30.45 "Hg (Oct 27, 9:51 PM)
Low35 °F (Oct 26, 5:51 AM)29% (Oct 14, 3:51 PM)29.37 "Hg (Oct 22, 8:51 AM)
Average58 °F63%30.03 "Hg
* Reported Oct 13 12:51 PM — Oct 28 12:51 PM, Paramus, Weather by CustomWeather, © 2016

Note: Actual official high and low records may vary slightly from our data, if they occured in-between our weather recording intervals... More about our weather records


Paramus Weather History for the Previous 24 Hours

Scroll right to see more
Time TempWeatherWind HumidityBarometerVisibility
12:51 PM
Fri, Oct 28
48 °FOvercast.22 mph50%30.11 "Hg10 mi
11:51 AM47 °FOvercast.22 mph50%30.12 "Hg10 mi
10:51 AM47 °FOvercast.16 mph50%30.12 "Hg10 mi
9:51 AM46 °FPartly sunny.21 mph58%30.13 "Hg10 mi
8:51 AM46 °FPassing clouds.13 mph66%30.12 "Hg10 mi
7:51 AM45 °FPassing clouds.9 mph71%30.09 "Hg10 mi
6:51 AM45 °FClear.13 mph74%30.06 "Hg10 mi
5:51 AM44 °FOvercast.No wind89%30.05 "Hg10 mi
4:51 AM44 °FPassing clouds.No wind85%30.03 "Hg10 mi
3:51 AM45 °FPassing clouds.5 mph86%30.02 "Hg10 mi
2:51 AM45 °FPassing clouds.6 mph86%30.02 "Hg10 mi
1:51 AM48 °FDrizzle. Fog.7 mph89%30.01 "Hg8 mi
12:51 AM50 °FDrizzle. Fog.6 mph89%30.01 "Hg4 mi
11:51 PM
Thu, Oct 27
51 °FDrizzle. Fog.13 mph92%30.01 "Hg2 mi
10:51 PM52 °FDrizzle. Fog.5 mph93%30.00 "Hg2 mi
9:51 PM52 °FLight rain. Fog.5 mph93%30.02 "Hg2 mi
8:51 PM53 °FRain. Fog.3 mph89%30.05 "Hg3 mi
7:51 PM51 °FRain. Fog.5 mph89%30.10 "Hg3 mi
6:54 PM49 °FRain. Fog.7 mph90%30.13 "Hg4 mi
5:51 PM47 °FRain. Fog.7 mph90%30.16 "Hg2 mi
4:58 PM46 °FRain. Fog.5 mph86%30.18 "Hg3 mi
3:51 PM44 °FLight rain. Low clouds.3 mph85%30.22 "Hg8 mi
2:51 PM44 °FOvercast.6 mph85%30.24 "Hg7 mi
1:51 PM43 °FLight rain. Overcast.5 mph82%30.28 "Hg4 mi
Weather by CustomWeather, © 2016

See weather overviewHow to use our weather pages